Voltar ao catálogo

SL-14 DEB

AtivoPO
NORAD 45314·DEBRIS·🇷🇺 Russia

Lançado Aug 15, 1991 de Plesetsk Cosmodrome

Loading…

Próximas Passagens (próximas 24 horas)

TLE

AtualizadoSource: Space-Track

Época: Sep 13, 2026, 19:29 UTC

1 45314U 91056BC  26256.81232793 -.00000623  00000-0 -18321-2 0  9994
2 45314  82.5323  96.5173 0050179  67.3959 293.2456 13.09566070312884

Acompanhe SL-14 DEB em tempo real com AllMySat

Download on the App Store